Aspen, CO

9:23 AM MDT on August 30, 2016 (GMT -0600)
Aspen-Pitkin County / Sardy Field

Weather History for KASE - January, 2013

Change the Weather History Date:

Thursday, January 3, 2013

  Actual Average Record
Temperature  
Mean Temperature 4 °F 20 °F  
Max Temperature 19 °F 32 °F 57 °F (2006)
Min Temperature -12 °F 7 °F -12 °F (2013)
Degree Days  
Heating Degree Days 61 46  
Month to date heating degree days 174 138  
Since 1 July heating degree days 3424 3859  
Cooling Degree Days 0 0  
Month to date cooling degree days 0 0  
Year to date cooling degree days 0 0  
Moisture  
Dew Point -7 °F    
Average Humidity 59    
Maximum Humidity 79    
Minimum Humidity 39    
Precipitation  
Precipitation 0.00 in 0.03 in 0.36 in (2004)
Month to date precipitation T 0.11  
Year to date precipitation T 0.11  
Sea Level Pressure  
Sea Level Pressure 30.52 in    
Wind  
Wind Speed 5 mph (SSW)    
Max Wind Speed 12 mph    
Max Gust Speed 14 mph    
Visibility 10 miles    
Events      
T = Trace of Precipitation, MM = Missing Value Source: NWS Daily Summary

Daily Weather History Graph

Daily Weather History Graph

Search for Another Location

Airport or City:

Trip Planner

Search our weather history database for the weather conditions in past years. The results will help you decide how hot, cold, wet, or windy it might be!

Date:

Astronomy

Jan. 03, 2013 Rise Set
Actual Time 7:27 AM MST 4:57 PM MST
Civil Twilight 6:57 AM MST 5:27 PM MST
Nautical Twilight 6:23 AM MST 6:00 PM MST
Astronomical Twilight 5:51 AM MST 6:33 PM MST
Moon 11:32 PM MST (1/3) 10:43 AM MST (1/3)
Length of Visible Light 10h 29m
Length of Day
9h 29m
Waning Gibbous, 65% of the Moon is Illuminated
Jan 3
Waning Gibbous
Jan 4
Last Quarter
Jan 11
New
Jan 18
First Quarter
Jan 26
Full

Hourly Weather History & Observations

Time (MST) Temp. Windchill Dew Point Humidity Pressure Visibility Wind Dir Wind Speed Gust Speed Precip Events Conditions
12:53 AM -0.9 °F -12.7 °F -7.1 °F 75% 30.43 in 10.0 mi SSW 5.8 mph - N/A   Clear
1:53 AM -2.9 °F -18.8 °F -9.9 °F 72% 30.44 in 10.0 mi SSW 9.2 mph - N/A   Clear
2:53 AM 1.9 °F -10.6 °F -7.1 °F 66% 30.42 in 10.0 mi SSW 6.9 mph - N/A   Clear
3:53 AM -0.0 °F -11.6 °F -9.0 °F 66% 30.43 in 10.0 mi SSW 5.8 mph - N/A   Clear
4:53 AM -2.9 °F -16.5 °F -9.9 °F 72% 30.50 in 10.0 mi SSW 6.9 mph - N/A   Clear
5:53 AM -9.0 °F - -15.0 °F 75% 30.56 in 10.0 mi Calm Calm - N/A   Clear
6:53 AM -9.0 °F - -15.0 °F 75% 30.61 in 10.0 mi Calm Calm - N/A   Clear
7:53 AM -11.9 °F - -18.0 °F 74% 30.65 in 10.0 mi Calm Calm - N/A   Clear
8:53 AM -0.0 °F -11.6 °F -8.0 °F 69% 30.62 in 10.0 mi SSE 5.8 mph - N/A   Clear
9:53 AM 6.1 °F - -6.0 °F 58% 30.59 in 10.0 mi Calm Calm - N/A   Clear
10:53 AM 10.0 °F 0.4 °F -5.1 °F 51% 30.54 in 10.0 mi NNW 5.8 mph - N/A   Clear
11:53 AM 12.0 °F 1.5 °F -4.0 °F 49% 30.51 in 10.0 mi North 6.9 mph - 0.00 in   Clear
12:53 PM 16.0 °F 8.8 °F -2.0 °F 45% 30.45 in 10.0 mi Variable 4.6 mph - N/A   Clear
1:53 PM 16.0 °F 10.4 °F -2.9 °F 43% 30.44 in 10.0 mi NNW 3.5 mph - N/A   Clear
2:53 PM 19.0 °F - -2.0 °F 40% 30.39 in 10.0 mi Calm Calm - N/A   Clear
3:53 PM 16.0 °F 8.8 °F -0.9 °F 47% 30.43 in 10.0 mi NNW 4.6 mph - N/A   Clear
4:53 PM 9.0 °F - -4.0 °F 56% 30.51 in 10.0 mi Calm Calm - N/A   Clear
5:53 PM 3.9 °F -6.9 °F -6.0 °F 64% 30.60 in 10.0 mi SSW 5.8 mph - N/A   Clear
6:53 PM 3.0 °F -11.5 °F -6.0 °F 66% 30.61 in 10.0 mi SSW 9.2 mph - N/A   Clear
7:53 PM 1.9 °F -10.6 °F -7.1 °F 66% 30.64 in 10.0 mi SSW 6.9 mph - N/A   Clear
8:53 PM 1.9 °F -10.6 °F -6.0 °F 69% 30.56 in 10.0 mi SSW 6.9 mph - N/A   Clear
9:53 PM -0.9 °F -12.7 °F -8.0 °F 72% 30.54 in 10.0 mi South 5.8 mph - N/A   Clear
10:53 PM -0.9 °F -14.1 °F -9.0 °F 69% 30.52 in 10.0 mi SSE 6.9 mph - N/A   Clear
11:53 PM 1.0 °F -11.7 °F -6.0 °F 72% 30.48 in 10.0 mi South 6.9 mph - N/A   Clear